www.pogodaiklimat.ru

Погода и климат >> Архив погоды >> Сербия >> Пожега Ужичка


ПОГОДА в Пожега Ужичка

  • Прогноз погоды в Пожега Ужичка
  • Монитор погоды в Пожега Ужичка

АРХИВ ПОГОДЫ в Пожега Ужичка

Время (UTC), дата Ветер
(напр.,м/с)
 
Видим.   Явления Облачность Т
(С)
Тd
(С)
f
(%)
Тe
(С)
Тes
(С)
Комфортность P
(гПа)
Po
(гПа)
Тmin
(С)
Tmax
(С)
R
(мм)
R24
(мм)
S
(см)
01 13.08 З 1 20 км ясно +17.2 +16.9 98 +18 +18 1013.1 976.9
02 13.08 штиль 0 20 км ясно +16.7 +16.4 98 +17 +17 1012.9 976.7
03 13.08 СЗ 1 20 км ясно +13.2 +12.8 97 +13 +13 1013.0 976.7
04 13.08 штиль 0 20 км ясно +15.6 +15.3 98 +15 +15 1013.0 976.7
05 13.08 Ю 1 20 км ясно +16.6 +16.3 98 +17 +19 1012.9 976.7
06 13.08 СЗ 1 20 км ясно +18.8 +17.3 91 +21 +25 комфорт 1012.6 976.7 +15.6
07 13.08 С 1 20 км ясно +21.8 +18.0 79 +26 +35 душно 1012.2 976.6
08 13.08 Ю 1 20 км ясно +25.2 +18.9 68 +30 +43 душно 1011.6 976.5
09 13.08 З 1 20 км ясно +27.9 +18.7 57 +33 +50 очень
душно
1011.2 976.5
10 13.08 Ю 1 20 км ясно +30.3 +17.3 46 +34 +53 опасность
солнечного
удара
1010.5 975.9
11 13.08 ЮВ 1 20 км ясно +32.0 +18.7 45 +37 +56 опасность
солнечного
удара
1009.5 975.5
12 13.08 ЮВ 2 20 км ясно +33.6 +18.1 40 +38 +53 опасность
солнечного
удара
1009.2 975.1
13 13.08 В 2 20 км ясно +35.3 +16.9 34 +38 +50 очень
душно
1008.6 974.6
14 13.08 В 2 20 км 4/0
[Ci sp]
+35.3 +16.9 34 +38 +46 очень
душно
1008.1 974.2
15 13.08 С 2 20 км 4/0
[Ci sp]
+34.2 +19.6 42 +40 +44 очень
душно
1008.3 974.4
16 13.08 С 1 20 км 3/0
[Ci sp]
+31.7 +19.7 49 +38 +40 очень
душно
1008.2 974.0
17 13.08 З 2 20 км 5/0
[Ci sp]
+29.3 +21.7 64 +38 +38 очень
душно
1008.7 974.1
18 13.08 СЗ 3 20 км 9/5 1000 м
[Sc Ci sp]
+27.0 +21.6 72 +34 +34 очень
душно
1009.7 974.8 +36.3
19 13.08 З 1 10 км гроза без осадков 10/10 1000 м
[Cb cap]
+25.5 +21.4 78 +32 +32 очень
душно
1011.4 976.2
20 13.08 З 1 10 км 10/10 1000 м
[Sc]
+24.7 +20.7 78 +31 +31 очень
душно
1012.3 977.0
21 13.08 штиль 0 10 км 10/10 1000 м
[Sc]
+24.1 +21.0 83 +30 +30 очень
душно
1011.3 975.9
22 13.08 С 1 10 км 8/0
[Ac trans]
+23.2 +21.0 87 +31 +31 очень
душно
1010.9 975.4
23 13.08 З 1 10 км 1/0
[Ci fib]
+22.4 +20.1 87 +29 +29 очень
душно
1010.8 975.2
00 14.08 СЗ 1 10 км ясно +20.8 +18.5 87 +26 +26 душно 1010.8 975.1
01 14.08 штиль 0 10 км ясно +19.5 +18.7 95 +22 +22 комфорт 1010.7 974.8
03 14.08 СЗ 1 10 км ясно +18.2 +17.3 94 +20 +20 1010.9 974.8
06 14.08 СЗ 2 10 км 10/10 1000 м
[Sc]
+20.3 +17.7 85 +24 +24 комфорт 1011.6 975.8 +17.7
07 14.08 С 3 10 км 10/10 1000 м
[Sc]
+19.8 +17.5 87 +23 +23 комфорт 1013.2 977.4
08 14.08 СЗ 3 10 км 10/10 1000 м
[Cu Sc]
+19.2 +16.8 86 +21 +21 комфорт 1014.3 978.3
09 14.08 СЗ 2 10 км 10/10 1000 м
[Cu Sc]
+18.8 +16.2 85 +20 +20 1015.2 979.2
10 14.08 СЗ 1 20 км 10/10 600 м
[Cu Sc]
+19.4 +16.6 84 +22 +22 комфорт 1015.4 979.4
11 14.08 Ю 2 20 км 10/10 600 м
[Cu Sc]
+19.8 +15.0 74 +22 +22 комфорт 1015.0 979.1
12 14.08 СЗ 1 20 км 10/10 600 м
[Cu Sc]
+20.2 +16.5 79 +24 +24 комфорт 1014.8 978.9
13 14.08 ЮВ 1 20 км гроза, ливневой дождь 10/10 1000 м
[Cb cap]
+20.1 +16.5 80 +24 +24 комфорт 1014.3 978.4
14 14.08 СЗ 1 10 км слаб. дождь {гроза} 10/10 1000 м
[Sc]
+18.5 +18.0 97 +20 +20 1013.6 977.6
15 14.08 СЗ 1 15 км в посл. час дождь {гроза} 10/10 1000 м
[Sc]
+18.5 +17.7 95 +20 +20 1014.5 978.4
16 14.08 ЮВ 1 15 км 10/10 1000 м
[Sc]
+18.5 +17.7 95 +20 +20 1014.0 978.0
17 14.08 С 2 10 км в посл. час дождь 10/10 600 м
[Cu Sc]
+17.3 +15.7 90 +18 +18 1015.0 978.8
18 14.08 штиль 0 10 км {гроза, дождь} 10/10 600 м
[Cu Sc]
+17.0 +15.4 90 +17 +17 1015.9 979.6 +20.4 5
19 14.08 штиль 0 10 км слаб. дождь 10/10 600 м
[Sc]
+16.7 +16.0 96 +17 +17 1016.4 980.1
20 14.08 штиль 0 15 км в посл. час дождь 10/10 600 м
[]
+16.6 +15.8 95 +16 +16 1016.8 980.5
21 14.08 С 1 15 км {дождь} 10/10 600 м
[Sc]
+16.3 +15.5 95 +17 +17 1016.6 980.2
22 14.08 штиль 0 15 км 10/10 600 м
[Sc]
+16.4 +15.5 94 +16 +16 1016.8 980.4
23 14.08 штиль 0 15 км 10/10 600 м
[Sc]
+16.4 +15.5 94 +16 +16 1016.5 980.1
00 15.08 СЗ 1 15 км {дождь} 10/10 600 м
[Sc]
+16.1 +15.5 96 +17 +17 1016.4 980.0 0.2
01 15.08 штиль 0 15 км 10/10 600 м
[Sc]
+15.9 +15.3 96 +16 +16 1016.4 980.0
02 15.08 штиль 0 15 км 10/10 600 м
[Sc]
+15.8 +15.4 97 +16 +16 1016.1 979.7
03 15.08 штиль 0 10 км 9/9 1000 м
[Sc]
+15.1 +14.7 97 +15 +15 1016.4 979.9
04 15.08 штиль 0 15 км 10/10 1000 м
[Sc]
+15.1 +14.7 97 +15 +15 1016.4 979.9
05 15.08 штиль 0 15 км 10/10 1000 м
[Sc]
+15.3 +14.8 97 +15 +15 1016.6 980.1
06 15.08 СЗ 1 15 км 10/10 1000 м
[Sc]
+15.9 +14.8 93 +17 +17 1016.6 980.1 +15.1 5
07 15.08 З 1 10 км в посл. час дождь 10/10 600 м
[Cu Sc]
+15.8 +14.9 94 +16 +16 1017.2 980.6
08 15.08 СЗ 2 10 км 10/10 600 м
[Cu Sc]
+16.7 +14.5 87 +17 +17 1017.0 980.6
09 15.08 СЗ 2 15 км 9/9 600 м
[Cu Sc]
+18.3 +14.3 77 +19 +21 1016.6 980.3
10 15.08 СЗ 2 30 км 4/4 600 м
[Cu hum]
+20.4 +13.0 62 +23 +33 комфорт 1015.8 979.8
11 15.08 С 2 40 км 5/5 600 м
[Cu med, cong]
+20.9 +10.9 53 +24 +32 комфорт 1015.2 979.3
12 15.08 СЗ 3 40 км {дождь} 5/5 600 м
[Cu med, cong]
+22.2 +10.5 47 +24 +30 комфорт 1014.8 979.0 0.3
13 15.08 СЗ 2 40 км 4/4 600 м
[Cu med, cong]
+23.2 +9.7 42 +25 +32 комфорт 1014.1 978.5
14 15.08 С 2 40 км 4/4 600 м
[Cu med, cong]
+23.6 +10.0 42 +25 +30 комфорт 1013.9 978.4
15 15.08 СЗ 2 40 км 4/4 600 м
[Cu med, cong]
+23.4 +9.7 42 +25 +28 комфорт 1013.8 978.2
16 15.08 СЗ 2 40 км 1/1 600 м
[Cu hum]
+22.9 +7.7 38 +24 +26 комфорт 1013.9 978.3
17 15.08 СЗ 1 40 км ясно +21.4 +9.5 47 +23 +23 комфорт 1014.3 978.5
18 15.08 С 1 30 км 3/3 1000 м
[Sc]
+18.3 +12.1 67 +20 +20 1015.1 979.0 +23.6 0.3
19 15.08 С 1 30 км 3/3 1000 м
[Sc]
+15.5 +12.1 80 +16 +16 1016.2 979.8
20 15.08 СЗ 1 30 км 3/1 1000 м
[Sc Ac trans]
+14.2 +11.7 85 +15 +15 1016.9 980.2
21 15.08 штиль 0 30 км 3/1 1000 м
[Sc Ac trans]
+12.4 +10.9 91 +12 +12 1017.3 980.4
22 15.08 С 1 30 км ясно +11.6 +10.5 93 +11 +11 1017.3 980.4
23 15.08 С 1 30 км ясно +11.0 +10.3 95 +11 +11 1017.5 980.4
00 16.08 С 1 30 км ясно +10.3 +9.8 97 +10 +10 1017.7 980.4
01 16.08 штиль 0 20 км ясно +9.2 +8.6 96 +8 +8 1017.9 980.4
02 16.08 штиль 0 20 км ясно +9.0 +8.6 97 +8 +8 1017.9 980.4
03 16.08 штиль 0 20 км ясно +8.2 +7.7 97 +7 +7 1018.4 980.8
04 16.08 штиль 0 2000 м дымка 10/10 600 м
[St]
+8.8 +8.5 98 +8 +8 1017.8 981.3
05 16.08 С 1 400 м туман ?/? +9.5 +9.4 99 +9 +9 1018.7 981.3
06 16.08 штиль 0 400 м туман ?/? +10.0 +9.8 99 +9 +9 1019.2 981.8 +8.1
07 16.08 штиль 0 3000 м в посл. час туман 8/8 300 м
[St]
+10.5 +10.0 97 +10 +12 1018.9 981.5
08 16.08 штиль 0 20 км {туман} 3/1 1000 м
[Cu hum Ac trans]
+16.0 +14.8 93 +16 +27 1018.3 981.5
09 16.08 штиль 0 20 км {туман} 3/3 1000 м
[Cu med, cong]
+19.1 +12.7 66 +20 +33 опасность
простуды
1017.6 981.5
10 16.08 В 1 20 км 3/3 1000 м
[Cu med, cong]
+21.6 +11.1 51 +23 +37 комфорт 1017.0 981.3
11 16.08 Ю 2 20 км 5/5 1000 м
[Cu med, cong]
+23.0 +10.0 44 +25 +33 комфорт 1015.9 980.4
12 16.08 В 1 20 км 6/6 1000 м
[Cu med, cong]
+23.0 +9.5 42 +25 +31 комфорт 1015.5 980.0
13 16.08 З 1 30 км 6/6 1000 м
[Cu med, cong]
+23.6 +9.7 41 +25 +30 комфорт 1015.2 979.8
14 16.08 З 1 30 км 6/6 1000 м
[Cu med, cong]
+24.5 +10.5 41 +26 +29 жарко 1015.2 979.8
15 16.08 СЗ 1 30 км 4/3 1000 м
[Cu Sc Ac trans]
+24.4 +9.5 39 +25 +29 комфорт 1015.0 979.6
16 16.08 С 1 20 км 3/3 1000 м
[Cu Sc]
+24.2 +9.2 39 +25 +26 комфорт 1015.1 979.6
17 16.08 штиль 0 30 км 3/3 1000 м
[Cu Sc]
+22.0 +10.2 47 +24 +24 комфорт 1015.6 979.8
18 16.08 штиль 0 30 км 1/1 1000 м
[Sc]
+18.3 +13.6 74 +19 +19 1016.3 980.1 +25.1
19 16.08 СЗ 1 20 км 1/1 1000 м
[Sc]
+16.2 +13.2 82 +17 +17 1017.3 980.9
20 16.08 СЗ 1 20 км 1/1 1000 м
[Sc]
+14.7 +13.2 91 +15 +15 1018.2 981.6
21 16.08 С 1 20 км 3/3 1000 м
[Sc]
+13.6 +12.5 93 +14 +14 1018.8 982.1
22 16.08 штиль 0 20 км 6/6 1000 м
[Sc]
+13.2 +12.4 95 +13 +13 1019.2 982.3
23 16.08 З 1 20 км 3/3 1000 м
[Sc]
+11.7 +11.2 97 +11 +11 1019.2 982.2
00 17.08 СЗ 1 20 км ясно +11.1 +10.8 98 +11 +11 1019.3 982.2
01 17.08 штиль 0 20 км 6/6 1000 м
[Sc]
+10.9 +10.5 97 +10 +10 1019.3 982.2
02 17.08 штиль 0 20 км 1/1 1000 м
[Sc]
+10.6 +10.3 98 +10 +10 1019.3 982.2
03 17.08 штиль 0 20 км ясно +10.0 +9.7 98 +9 +9 1019.6 982.2
04 17.08 штиль 0 20 км ясно +9.4 +9.0 97 +8 +8 1019.8 982.3
05 17.08 С 1 20 км ясно +9.8 +9.5 98 +9 +10 1020.1 982.7
06 17.08 Ю 1 20 км ясно +12.2 +11.1 93 +12 +16 1020.0 982.8 +9.4
07 17.08 ЮВ 1 20 км ясно +15.1 +11.8 81 +16 +24 1019.6 982.8
08 17.08 ЮВ 1 20 км ясно +18.3 +12.0 67 +20 +32 1019.1 982.7
09 17.08 В 1 20 км 1/1 1000 м
[Cu hum]
+21.2 +12.7 58 +23 +38 комфорт 1018.6 982.6
10 17.08 ЮВ 1 30 км 3/3 1000 м
[Cu med, cong]
+23.0 +13.0 53 +26 +39 жарко 1017.8 982.1
11 17.08 В 1 30 км 4/3 1000 м
[Cu med, cong Ci fib]
+24.5 +12.1 46 +26 +39 жарко 1016.9 981.4
12 17.08 В 1 30 км 6/4 1000 м
[Cu med, cong Ci fib]
+25.9 +12.3 43 +27 +37 жарко 1016.3 981.0
13 17.08 ЮВ 2 30 км 5/3 1000 м
[Cu med, cong Ci sp]
+25.9 +12.8 44 +28 +35 жарко 1015.8 980.5
14 17.08 Ю 1 30 км 4/4 1000 м
[Cu med, cong]
+25.9 +11.4 40 +27 +33 жарко 1015.5 980.2
15 17.08 Ю 1 30 км 3/3 1000 м
[Cu med, cong]
+26.4 +11.4 39 +28 +31 жарко 1015.2 979.9
16 17.08 В 2 30 км 1/1 1000 м
[Cu med, cong]
+26.2 +11.1 39 +27 +29 жарко 1015.2 979.9
17 17.08 ЮВ 1 30 км 1/1 1000 м
[Cu med, cong]
+24.5 +11.8 45 +26 +26 жарко 1015.2 979.9
18 17.08 СЗ 1 30 км ясно +20.4 +14.9 71 +24 +24 комфорт 1016.1 980.2 +26.8
19 17.08 СЗ 1 20 км ясно +18.0 +14.8 82 +19 +19 1017.0 980.8
20 17.08 С 1 20 км ясно +16.2 +14.5 90 +17 +17 1017.3 980.9
21 17.08 штиль 0 20 км ясно +14.7 +13.2 91 +14 +14 1018.0 981.4
22 17.08 штиль 0 20 км ясно +13.5 +12.7 95 +13 +13 1018.2 981.5
23 17.08 СЗ 1 20 км ясно +12.8 +12.1 96 +13 +13 1018.6 981.7
00 18.08 штиль 0 20 км ясно +12.8 +12.1 96 +12 +12 1018.6 981.7
01 18.08 штиль 0 20 км ясно +11.5 +10.9 96 +11 +11 1018.6 981.6
02 18.08 штиль 0 20 км ясно +10.7 +10.2 97 +10 +10 1018.9 981.6
03 18.08 штиль 0 20 км ясно +10.0 +9.7 98 +9 +9 1019.0 981.6
04 18.08 штиль 0 20 км 3/3 1500 м
[Sc]
+10.2 +9.8 97 +9 +9 1019.3 981.9
05 18.08 штиль 0 20 км 3/3 1500 м
[Sc]
+10.8 +10.3 97 +10 +11 1019.2 982.1
06 18.08 З 1 2000 м дымка 10/10 600 м
[St]
+11.9 +11.5 97 +12 +12 1019.2 982.2 +9.8
07 18.08 Ю 1 15 км 1/0
[Ci fib]
+14.7 +13.4 92 +15 +23 1018.7 982.1
08 18.08 Ю 1 20 км 1/0
[Ci fib]
+18.2 +13.9 76 +20 +32 1018.1 981.8
09 18.08 Ю 1 20 км 4/0
[Ci fib]
+21.7 +13.4 59 +24 +39 комфорт 1017.3 981.6
10 18.08 Ю 1 20 км 4/0
[Ci fib]
+24.7 +13.6 50 +27 +44 жарко 1016.4 981.1
11 18.08 З 1 30 км 1/0
[Ci fib]
+27.5 +11.2 36 +28 +47 жарко 1015.7 980.7
12 18.08 В 1 30 км 1/0
[Ci fib]
+29.0 +8.8 28 +29 +45 жарко 1014.9 980.0
13 18.08 В 1 30 км 1/0
[Ci fib]
+30.1 +7.7 25 +29 +43 жарко 1014.8 980.0
14 18.08 ЮВ 2 30 км ясно +29.9 +7.7 25 +29 +37 жарко 1014.3 979.5
15 18.08 В 1 30 км ясно +30.1 +8.4 26 +29 +34 жарко 1014.3 979.5
16 18.08 В 1 30 км ясно +29.9 +9.5 28 +30 +31 жарко 1014.3 979.5
17 18.08 ЮВ 1 30 км ясно +27.9 +13.9 42 +30 +30 жарко 1014.4 979.5
18 18.08 СЗ 1 30 км ясно +22.6 +15.5 64 +27 +27 душно 1015.3 979.8 +30.5
19 18.08 СЗ 1 30 км ясно +19.4 +15.6 79 +22 +22 комфорт 1016.5 980.5
20 18.08 штиль 0 30 км ясно +17.1 +15.4 90 +17 +17 1017.3 981.0
21 18.08 штиль 0 20 км ясно +15.8 +14.0 89 +16 +16 1017.5 981.1
22 18.08 штиль 0 20 км ясно +14.7 +13.5 93 +14 +14 1018.0 981.4
23 18.08 СЗ 1 20 км ясно +13.8 +13.0 95 +14 +14 1018.2 981.5
00 19.08 штиль 0 20 км ясно +12.7 +12.0 96 +12 +12 1018.4 981.5
01 19.08 штиль 0 20 км ясно +12.1 +11.5 96 +11 +11 1011.6 981.5
02 19.08 штиль 0 20 км ясно +11.4 +10.9 97 +11 +11 1019.0 981.9
03 19.08 штиль 0 20 км ясно +11.3 +10.9 97 +11 +11 1019.0 981.9
04 19.08 З 1 20 км 3/0
[Ci sp]
+10.6 +10.3 98 +10 +10 1019.4 982.3
05 19.08 штиль 0 20 км 1/0
[Ci fib]
+11.8 +11.2 96 +11 +12 1019.5 982.5
06 19.08 Ю 1 20 км ясно +14.1 +12.3 89 +14 +18 1019.5 982.6 +10.6
07 19.08 Ю 1 20 км 1/0
[Ci fib]
+17.4 +13.4 77 +18 +26 1019.1 982.6
08 19.08 штиль 0 20 км 1/0
[Ci fib]
+20.7 +12.5 59 +23 +36 комфорт 1018.1 982.1
09 19.08 Ю 1 20 км 1/0
[Ci fib]
+24.0 +12.3 48 +26 +41 жарко 1017.5 981.9
10 19.08 ЮВ 1 30 км 1/0
[Ci fib]
+27.1 +12.0 39 +28 +46 жарко 1016.6 981.4
11 19.08 ЮВ 2 30 км 1/0
[Ci fib]
+29.9 +10.5 30 +30 +45 жарко 1015.9 980.9
12 19.08 ЮВ 2 30 км 1/0
[Ci fib]
+31.6 +11.1 28 +32 +46 жарко 1015.2 980.7
13 19.08 ЮВ 2 30 км 1/0
[Ci fib]
+32.0 +11.2 28 +32 +43 жарко 1015.0 980.5
14 19.08 ЮВ 2 40 км 1/0
[Ci fib]
+32.3 +11.7 28 +32 +40 жарко 1014.8 980.3
15 19.08 В 2 40 км 1/0
[Ci fib]
+32.5 +11.1 27 +32 +37 жарко 1014.5 980.1
16 19.08 ЮВ 1 40 км 1/0
[Ci fib]
+31.7 +13.4 33 +33 +35 жарко 1014.6 980.1
17 19.08 Ю 1 40 км 1/0
[Ci fib]
+29.4 +14.9 41 +32 +32 душно 1015.1 980.3
18 19.08 СЗ 1 30 км ясно +24.6 +16.4 60 +28 +28 душно 1015.9 980.6 +32.5
19 19.08 СЗ 1 30 км ясно +20.5 +17.5 83 +25 +25 комфорт 1016.7 980.9
20 19.08 С 1 20 км ясно +18.9 +16.9 88 +21 +21 комфорт 1017.8 981.7
21 19.08 штиль 0 20 км ясно +17.0 +15.4 90 +17 +17 1018.5 982.1
22 19.08 штиль 0 20 км ясно +16.1 +14.8 92 +16 +16 1018.8 982.3
23 19.08 штиль 0 20 км ясно +15.1 +14.3 95 +15 +15 1019.0 982.4
00 20.08 СЗ 1 20 км ясно +14.5 +13.9 96 +15 +15 1014.0 982.6

 

Местоположение метеостанции Пожега Ужичка (Сербия): широта 43.83 долгота 20.03 высота над уровнем моря 312 м.

В архиве по умолчанию представлена погода в Пожега Ужичка за последнюю неделю. Архивные данные за месяц целиком и за предыдущие месяцы, начиная с января 2011 года, Вы можете получить, выбрав интересующий диапазон дат из раскрывающегося списка и нажав кнопку "Ввод!".


*Определитесь, кто Вы:
робот инопланетянин человек

Внимание! Время в таблицах - всемирное. Для получения местного времени необходимо прибавить поправку, которая равна 1 ч.

Смотрите также архив погоды в соседних городах и на ближайших метеорологических станциях:

Погода в Златиборе (Сербия) (27 км)
Погода в Валево (Сербия) (55 км)
Погода в Кралево (Сербия) (56 км)
Погода в Женике (Сербия) (61 км)
Погода в Крагуеваце (Сербия) (75 км)
Погода в Плевле (Черногория) (76 км)
Погода на Копаонике (Сербия) (87 км)
Погода в Кукесе (Албания) (94 км)
Погода в Смедеревска-Паланке (Сербия) (95 км)
Погода в Лознице (Сербия) (102 км)

Пояснения к столбцам:

Ветер - указаны скорость ветра в м/с - средняя за 10 мин, порывы в срок и между сроками (в фигурных скобках) и направление, откуда дует ветер: С - северный, СВ - северо-восточный, В - восточный, ЮВ - юго-восточный, Ю - южный, ЮЗ - юго-западный, З - западный, СЗ - северо-западный.
Видимость - горизонтальная дальность видимости в метрах или километрах. При видимости от 1 до 10 км при отсутствии осадков обычно наблюдается дымка, при ухудшении видимости до 1 км и менее - туман. В сухую погоду видимость может ухудшаться дымом, пылью или мглою.
Явления - указаны атмосферные явления, наблюдавшиеся в срок или в последний час перед сроком; фигурными скобками обозначены явления, наблюдавшиеся между сроками (за 1-3 часа до срока); квадратными скобками обозначены град или гололедные отложения с указанием их диаметра в мм.
Облачность - указаны через наклонную черту общая и нижняя облачность в баллах и высота нижней границы облаков в метрах; квадратными скобками обозначены формы облаков: Ci - перистые, Cs - перисто-слоистые, Cc - перисто-кучевые, Ac - высококучевые, As - высокослоистые, Sc - слоисто-кучевые, Ns - слоисто-дождевые, Cu - кучевые, Cb - кучево-дождевые. Подробнее классификацию облаков см. в Атласе облаков (PDF).
T - Температура воздуха - температура, измеренная на высоте 2 м над землей.
Td - Температура точки росы - температура, при понижении до которой содержащийся в воздухе водяной пар достигнет насыщения.
f - Относительная влажность воздуха - влажноcть воздуха, измеренная на высоте 2 м над землей.
Te - Эффективная температура - температура, которую ощущает одетый по сезону человек в тени. Характеристика душности погоды. При расчете учитывается влияние влажности воздуха и скорости ветра на теплоощущения человека.
Tes - Эффективная температура на солнце - температура, которую ощущает человек, с поправкой на солнечный нагрев. Характеристика знойности погоды. Зависит от высоты солнца над горизонтом, облачности и скорости ветра. Ночью, в пасмурную погоду, а также при ветре 12 м/с и более поправка равна нулю.
P - Атмосферное давление - приведенное к уровню моря атмосферное давление.
Po - Атмосферное давление - измеренное на уровне метеостанции атмосферное давление.
Tmin - Минимальная температура - минимум температуры воздуха на высоте 2 м над землей.
Tmax - Максимальная температура - максимум температуры воздуха на высоте 2 м над землей.
R - Количество осадков - Количество выпавших осадков за период времени, мм. При наведении курсора мыши на число - период времени, за который выпало указанное количество осадков.
R24 - Количество осадков - Количество выпавших осадков за 24 часа, мм.
S - Снежный покров - Высота снежного покрова, см. При наведении курсора мыши на число - состояние снежного покрова и степень покрытия местности в баллах.